Regional Weather Roundup
Issued by NWS Mobile, AL

Home | Current Version | Previous Version | Text Only | Print | Product List | Glossary On
Versions: 1 2 3 4 5 6 7 8 9 10 11 12 13 14 15 16 17 18 19 20 21 22 23 24 25 26 27 28 29 30 31 32 33 34 35 36 37 38 39 40 41 42 43 44 45 46 47 48 49 50
000
ASUS44 KMOB 220610
RWRMOB
REGIONAL WEATHER ROUNDUP
NATIONAL WEATHER SERVICE MOBILE AL
1200 AM CST MON DEC 22 2014

NOTE: "FAIR" INDICATES FEW OR NO CLOUDS BELOW 12,000 FEET WITH NO
      SIGNIFICANT WEATHER AND/OR OBSTRUCTIONS TO VISIBILITY.

  * THESE STATIONS ARE PART OF THE UNIVERSITY OF SOUTH ALABAMA
    MESONET AND ARE NOT UNDER NWS OR FAA QUALITY CONTROL.

ALZ061>064-220700-
COASTAL ALABAMA

CITY           SKY/WX    TMP DP  RH WIND       PRES   REMARKS
MOBILE REG APT CLOUDY    54  54 100 E6        29.98F
6HR MIN TEMP:  53; 6HR MAX TEMP:  54;

BROOKLEY FIELD CLOUDY    57  55  93 NE7       30.00S
6HR MIN TEMP:  57; 6HR MAX TEMP:  58;

USA CAMPUS*      N/A     55  55 100 E2        29.99S
DOG RIVER*     NOT AVBL


CITY           SKY/WX    TMP DP  RH WIND       PRES   REMARKS
MOUNT VERNON*    N/A     52  52 100 CALM      30.00F
SARALAND*      NOT AVBL
BAY MINETTE*   NOT AVBL
LOXLEY*          N/A     54  54 100 E6        29.98F
ROBERTSDALE*     N/A     55  54  94 CALM      29.98F
FAIRHOPE*        N/A     55  55 100 E7        29.97F
ELBERTA*         N/A     55  55 100 NE6       29.96F
FOLEY*           N/A     54  54 100 E5        29.97F
GRAND BAY*       N/A     55  55 100 NE2       29.95F
DAUPHIN ISLND* NOT AVBL
BON SCOUR NWR* NOT AVBL
GULF SHORES    CLOUDY    55  54  95 NE3       29.96F

$$

ALZ051>060-220700-
INTERIOR SOUTHWEST AND SOUTH CENTRAL ALABAMA

CITY           SKY/WX    TMP DP  RH WIND       PRES   REMARKS
GREENVILLE     CLOUDY    54  52  94 E3        29.99F FOG
6HR MIN TEMP:  52; 6HR MAX TEMP:  53;

EVERGREEN      CLOUDY    55  53  93 E7        29.99F FOG
6HR MIN TEMP:  55; 6HR MAX TEMP:  56;

CASTLEBERRY*   NOT AVBL
ATMORE*          N/A     54  54 100 E7        30.00F
DIXIE*           N/A     54  54 100 CALM      29.98F
ANDALUSIA/OPP  CLOUDY    55  52  88 E3        30.00F FOG
6HR MIN TEMP:  56; 6HR MAX TEMP:  58;

ANDALUSIA*       N/A     52  52 100 E8        30.00F
FLORALA APT    FOG       54  53  97 E5        30.01F VSB 3/4
6HR MIN TEMP:  54; 6HR MAX TEMP:  55;

FLORALA*         N/A     54  54 100 E5        29.97F

$$

FLZ001>006-220700-
WESTERN FLORIDA PANHANDLE

CITY           SKY/WX    TMP DP  RH WIND       PRES   REMARKS
PENSACOLA      CLOUDY    53  53 100 NE5       29.97F
6HR MIN TEMP:  53; 6HR MAX TEMP:  54;

NAS PENSACOLA  NOT AVBL
MILTON         CLOUDY    54  53  97 E6        29.99S FOG
6HR MIN TEMP:  54; 6HR MAX TEMP:  55;

WHTNG S FIELD  NOT AVBL


CITY           SKY/WX    TMP DP  RH WIND       PRES   REMARKS
WALNUT HILL*   NOT AVBL
JAY*             N/A     54  52  94 E8        29.99F
DUKE FIELD     FOG       54  54 100 E5        29.98F VSB 1
CRESTVIEW      FOG       54  53  97 E5        30.00F VSB 1
6HR MIN TEMP:  54; 6HR MAX TEMP:  55;

VALPARAISO     FOG       55  54  97 E5        29.99F VSB 3/4
6HR MIN TEMP:  55; 6HR MAX TEMP:  56;

DESTIN         CLOUDY    56  55  97 NE6       29.97F FOG
6HR MIN TEMP:  56; 6HR MAX TEMP:  57;


$$

MSZ076-079-220700-
INTERIOR SOUTHEAST MISSISSIPPI

CITY           SKY/WX    TMP DP  RH WIND       PRES   REMARKS
LEAKESVILLE*   NOT AVBL
AGRICOLA*      NOT AVBL

$$

MARINE OBSERVATIONS

STATION/POSITION TIME  TEMP    WIND        PRES    WAVE
                       AIR SEA DIR/SP/G            HT/PER
                 (UTC) (F)     (DEG/KT/KT) (MB)    (FT/S)
PASCAGOULA       0600   57      30/  5/  8 1014.3F
PETIT BOIS ISLND 0600   57      60/ 12/ 15 1014.4F
GRAND BAY        0500   56      60/  5     1016.0S
KATRINA CUT      0500   56      70/ 10     1015.6F
CEDAR POINT      0500   55      60/  7     1015.2S
E DAUPHIN ISLAND 0600   57      50/  9/ 10 1014.3F
MIDDLE BAY LIGHT 0500   56      70/  9     1014.2F
USCG MOBILE BAY  0600   56 59   90/  5/  7 1014.1F
STATE DOCKS      0600   56 60              1014.9F
MEAHER PARK      0500   56      80/  2     1015.6S
WEEKS BAY        0500   56                   N/A
FORT MORGAN      0600   56      70/ 12/ 13 1014.0S
12 S ORANGE BCH  0600   65 71   70/ 14/ 16 1013.5F   2/ 5
PENSACOLA BAY    0600   57 59   60/  4/  7 1015.1F
64 S DAUPHIN ISL 0600   70 74  130/ 14/ 16 1013.6R   3/ 4
67 S FORT MORGAN 0500   69     120/ 16     1014.2R

$$

SELECTED LOCATIONS ACROSS THE REGION

CITY           SKY/WX    TMP DP  RH WIND       PRES   REMARKS
NEW ORLEANS    MOCLDY    58  54  86 NE8       29.92F FOG
GULFPORT       CLOUDY    56  55  97 NE5       29.94F FOG
PASCAGOULA AP  CLOUDY    56  54  93 NE5       29.97F
PASCAGOULA*      N/A     55  54  94 NE5       29.96F
HATTIESBURG    CLOUDY    52  52 100 E3        29.97F FOG
LAUREL         CLOUDY    52  48  87 E5        29.97F
MERIDIAN       CLOUDY    51  48  89 E5        29.97F
JACKSON        CLOUDY    51  49  92 SE8       29.94F
MONTGOMERY     CLOUDY    53  49  86 E9        30.03F
TROY           CLOUDY    52  50  93 CALM      30.02F FOG
KINSTON*       NOT AVBL
GENEVA*          N/A     54  52  94 E2        30.04S
ASHFORD*         N/A     52  52 100 E8        30.00F
DOTHAN         FOG       51  51 100 NE6       30.02F VSB 3/4
PANAMA CITY    CLOUDY    56  54  93 E6        29.98R FOG

$$




USA.gov is the U.S. government's official web portal to all federal, state and local government web resources and services.